Location: Cartignies
(50.0929°N, 3.8447°E)
Time: 15:04:06
(UTC+00:00)

Resurs 01 Rocket - Pass Details

Date: 12 January 2026
Orbit: 628 x 635 km, 97.7° (Epoch: 16 February)

Event Time Altitude Azimuth Distance (km) Brightness Sun altitude
Exits shadow 18:53:18 58° 205° (SSW) 736 1.9 -25.9°
Maximum altitude 18:53:59 70° 258° (WSW) 674 1.8 -26.0°
Drops below altitude 10° 18:58:22 10° 342° (NNW) 2,017 4.3 -26.7°
Sets 19:00:35 0° 345° (NNW) 2,930 5.2 -27.1°
